Skip Page Navigation
NASA JPL Caltech
NASA Logo - Jet Propulsion Laboratory + View the NASA Portal
+ Center for Near-Earth Object Studies
JPL Home Earth Solar System Stars & Galaxies Technology
JPL Solar System Dynamics
BODIES ORBITS EPHEMERIDES TOOLS PHYSICAL DATA DISCOVERY FAQ SITE MAP
IMPORTANT: The SSD Announcement email list is now available. Major changes are coming in the near future, including possible hostname and/or URL changes. To be notified of such changes, subscribe to this email list.

Please visit this page for more details.


JPL Small-Body Database Browser
Search: [ help ]  
359494 (2010 OP99)
Classification: Main-belt Asteroid          SPK-ID: 2359494
Ephemeris | Orbit Diagram | Orbital Elements | Mission Design | Physical Parameters | Discovery Circumstances | Close-Approach Data ]

[ show orbit diagram ]
Orbital Elements at Epoch 2458600.5 (2019-Apr-27.0) TDB
Reference: JPL 15 (heliocentric ecliptic J2000)
 Element Value Uncertainty (1-sigma)   Units 
e .2378411050048523 8.6929e-08  
a 3.039319714042916 4.6345e-08 au
q 2.316444554791917 2.7364e-07 au
i 9.903013351433536 9.5896e-06 deg
node 344.3434358454413 2.9826e-05 deg
peri 348.9591898238279 3.401e-05 deg
M 258.5498941514533 1.4743e-05 deg
tp 2459145.897334613847
(2020-Oct-23.39733461)
8.5099e-05 TDB
period 1935.365555498804
5.30
4.4268e-05
1.212e-07
d
yr
n .1860113708116588 4.2546e-09 deg/d
Q 3.762194873293915 5.7368e-08 au
  Orbit Determination Parameters
   # obs. used (total)      331  
   data-arc span      7182 days (19.66 yr)  
   first obs. used      1999-09-04  
   last obs. used      2019-05-04  
   planetary ephem.      DE431  
   SB-pert. ephem.      SB431-N16  
   condition code      0  
   norm. resid. RMS      .5098  
   source      ORB  
   producer      Otto Matic  
   solution date      2019-May-30 09:30:50  

Additional Information
 Earth MOID = 1.30656 au 
 Jupiter MOID = 1.62776 au 
 T_jup = 3.175 
[ show covariance matrix ]

Ephemeris | Orbit Diagram | Orbital Elements | Mission Design | Physical Parameters | Discovery Circumstances | Close-Approach Data ]

Physical Parameter Table
Parameter Symbol Value Units Sigma Reference Notes
absolute magnitude H 15.9   n/a MPO349026  
diameter diameter 5.040 km 0.169 urn:nasa:pds:neowise_diameters_albedos::2.0[mainbelt] (http://adsabs.harvard.edu/abs/2011ApJ...741...68M)  
rotation period rot_per 3.723 h n/a LCDB (Rev. 2019-January); Warner et al., 2009 Result based on less than full coverage, so that the period may be wrong by 30 percent or so.
Published Reference List:
[Waszczak, A.; Chang, C.-K.; Ofeck, E.O.; Laher, F.; et al. (2015) Astron. J. 150, A75.]
geometric albedo albedo 0.044   0.006 urn:nasa:pds:neowise_diameters_albedos::2.0[mainbelt] (http://adsabs.harvard.edu/abs/2011ApJ...741...68M)  

359494 (2010 OP99)          Discovered 2007-Jan-10 by Spacewatch at Kitt Peak
Reference: 20130327/Numbers.arcLast Updated: 2013-03-29

[ show close-approach data ]
Alternate Designations
 2010 OP99 = 2010 UW106 
Ephemeris | Orbit Diagram | Orbital Elements | Mission Design | Physical Parameters | Discovery Circumstances | Close-Approach Data ]
ABOUT SSD CREDITS/AWARDS PRIVACY/COPYRIGHT GLOSSARY LINKS
FirstGov
(server date/time)  
NASA Home Page
Site Manager:   Ryan S. Park
Webmaster  Alan B. Chamberlin